[Iaude] MPEC B24: 2024 BD [a=1.70,e=0.60,i=26.9,H=25.4]
    mpec at marsden.cfa.harvard.edu 
    mpec at marsden.cfa.harvard.edu
       
    Wed Jan 17 20:09:07 EST 2024
    
    
  
M.P.E.C. 2024-B24                              Issued 2024 January 18, 01:07 UT
     The Minor Planet Electronic Circulars contain information on unusual
         minor planets, routine data on comets and natural satellites,
         and occasional editorial announcements.  They are published
    on behalf of Division F of the International Astronomical Union by the
          Minor Planet Center, Smithsonian Astrophysical Observatory,
                          Cambridge, MA 02138, U.S.A.
			  
             Prepared using the Tamkin Foundation Computer Network
                              MPC at CFA.HARVARD.EDU
            URL https://www.minorplanetcenter.net/    ISSN 1523-6714
                                    2024 BD                                     
Observations:
     K24B00D* C2024 01 16.37703909 05 05.323+31 26 47.87         19.59GVEB024V00
     K24B00D  C2024 01 16.38256909 05 02.638+31 24 37.76         19.58GVEB024V00
     K24B00D  C2024 01 16.38807409 04 59.977+31 22 27.95               VEB024V00
     K24B00D  C2024 01 16.39357109 04 57.292+31 20 17.59         19.63GVEB024V00
     K24B00D KC2024 01 16.42511109 04 41.761+31 07 39.86         19.54GVEB024V06
     K24B00D KC2024 01 16.42555909 04 41.556+31 07 29.06         19.36GVEB024V06
     K24B00D KC2024 01 16.42599709 04 41.336+31 07 18.37         19.57GVEB024V06
     K24B00D KC2024 01 16.42643609 04 41.128+31 07 07.68         19.41GVEB024V06
     K24B00D KC2024 01 16.51507109 03 58.300+30 30 14.00         20.25GVEB024V06
     K24B00D KC2024 01 16.51551509 03 58.020+30 30 02.50         19.52GVEB024V06
     K24B00D KC2024 01 16.51595709 03 57.830+30 29 51.30         19.59GVEB024V06
     K24B00D KC2024 01 16.51639809 03 57.620+30 29 40.30         19.48GVEB024V06
     K24B00D KC2024 01 16.86917209 01 36.518+27 44 06.58         19.5 GVEB024J95
     K24B00D KC2024 01 16.87515409 01 33.420+27 41 03.73         18.7 GVEB024J95
     K24B00D KC2024 01 16.88041409 01 30.670+27 38 22.38         18.4 GVEB024J95
     K24B00D KC2024 01 16.88405009 01 28.778+27 36 29.95         19.0 GVEB024J95
     K24B00D KB2024 01 16.89027209 01 24.714+27 33 28.91         19.0 GXEB024B72
     K24B00D 1C2024 01 16.89630 09 01 20.91 +27 30 24.8          19.6 VXEB024033
     K24B00D 1C2024 01 16.89654 09 01 20.80 +27 30 17.4          19.3 VXEB024033
     K24B00D 1C2024 01 16.89679 09 01 20.65 +27 30 09.6          19.1 VXEB024033
     K24B00D KB2024 01 16.89999709 01 19.452+27 28 27.02         18.5 GXEB024B72
     K24B00D KB2024 01 16.90971909 01 14.109+27 23 22.64         18.7 GXEB024B72
     K24B00D KB2024 01 16.97900 09 00 34.459+26 46 22.84         18.2 GXEB024K74
     K24B00D KB2024 01 16.98436 09 00 31.370+26 43 26.11         18.0 GXEB024K74
     K24B00D KC2024 01 17.18304408 58 49.78 +24 47 17.4          19.0 GVEB024H21
     K24B00D KC2024 01 17.18497208 58 48.55 +24 46 06.1          19.0 GVEB024H21
     K24B00D KC2024 01 17.18690108 58 47.32 +24 44 54.1          18.9 GVEB024H21
     K24B00D KC2024 01 17.18882808 58 46.08 +24 43 42.7          19.0 GVEB024H21
     K24B00D KC2024 01 17.19075808 58 44.88 +24 42 30.8          18.8 GVEB024H21
     K24B00D  C2024 01 17.25031208 58 12.771+24 04 42.24         18.7 GVEB024654
     K24B00D  C2024 01 17.25237308 58 11.403+24 03 22.83         18.7 GVEB024654
     K24B00D 1C2024 01 17.31424108 57 28.123+23 22 46.16         18.59GVEB024703
     K24B00D 1C2024 01 17.31657008 57 26.536+23 21 11.92         18.57GVEB024703
     K24B00D 1C2024 01 17.31894108 57 24.851+23 19 35.94         18.62GVEB024703
     K24B00D 1C2024 01 17.32129308 57 23.256+23 18 00.00         18.52GVEB024703
     K24B00D mC2024 01 17.48480208 55 24.712+21 20 07.44         18.20GVEB024V06
     K24B00D mC2024 01 17.48493808 55 24.604+21 20 01.21         18.37GVEB024V06
     K24B00D mC2024 01 17.48507408 55 24.506+21 19 54.88         18.36GVEB024V06
     K24B00D mC2024 01 17.48521108 55 24.406+21 19 48.58         18.37GVEB024V06
     K24B00D 1C2024 01 17.76873 08 52 29.12 +17 21 41.2          18.3 GVEB024C40
     K24B00D 1C2024 01 17.77251 08 52 26.14 +17 18 13.0          18.7 GVEB024C40
     K24B00D 1C2024 01 17.77630 08 52 23.04 +17 14 43.4          18.3 GVEB024C40
     K24B00D 1C2024 01 17.79012 08 52 11.81 +17 01 58.8          19.0 GVEB024C40
     K24B00D 1C2024 01 17.79200 08 52 10.24 +17 00 13.4          19.0 GVEB024C40
     K24B00D 1C2024 01 17.79380 08 52 08.74 +16 58 33.9          18.7 GVEB024C40
     K24B00D 1C2024 01 17.81705 08 51 49.39 +16 36 42.7          18.5 GVEB024C40
     K24B00D 1C2024 01 17.82084 08 51 46.14 +16 33 08.3          18.7 GVEB024C40
     K24B00D 1C2024 01 17.82462 08 51 42.96 +16 29 32.3          18.6 GVEB024C40
     K24B00D KC2024 01 17.83440808 51 38.479+16 19 13.44         18.1 GVEB024J95
     K24B00D KC2024 01 17.83784408 51 35.736+16 15 56.09         18.3 GVEB024J95
     K24B00D KC2024 01 17.87661208 51 03.782+15 38 11.65         18.5 GVEB024Z80
     K24B00D KC2024 01 17.88360008 50 57.816+15 31 16.39         18.3 GVEB024Z80
     K24B00D KB2024 01 17.96843408 49 43.95 +14 04 58.1          17.7 GXEB024958
     K24B00D KB2024 01 17.97131708 49 41.27 +14 01 55.9          17.9 GXEB024958
     K24B00D KB2024 01 17.97427608 49 38.50 +13 58 47.3          17.9 GXEB024958
Observer details:
033 Karl Schwarzschild Observatory, Tautenburg.  Observers S. Melnikov, C.
    Hogner, F. Ludwig, M. Hartmann, B. Stecklum.  Measurer B. Stecklum.
    1.34-m f/3 Schmidt + CCD.
654 Table Mountain Observatory, Wrightwood-PHMC.  Observers N. Evans, P. Choi,
    N. Saini, C. Zhai, R. Trahan, M. Shao.  1.0-m Reflector + CCD.
703 Catalina Sky Survey.  Observers T. Beuden, D. Rankin.  Measurers T.
    Beuden, V. F. Carvajal, D. Fay, J. B. Fazekas, D. C. Fuls, A. R. Gibbs, A.
    D. Grauer, H. Groeller, J. K. Hogan, R. A. Kowalski, S. M. Larson, G. J.
    Leonard, D. Rankin, R. L. Seaman, F. C. Shelly, K. W. Wierzchos.  0.68-m
    Schmidt + 10K CCD.
958 Observatoire de Dax.  Observer P. Dupouy.  0.50-m f/4.5 Reflector + CMO.
B72 Soerth.  Observer B. Koch.  0.36-m f/7.6 reflector + CMO.
C40 Kuban State University Astrophysical Observatory.  Observers A. Ivanov, A.
    Barcov, V. Ivanov, V. Lysenko, N. Yakovenko, N. Ivanova, N. Gorbunov, G.
    Kurbatov, P. Shchukin, V. Roshchupko.  Measurer A. Ivanov.  0.51-m f/8
    reflector + CCD.
H21 Astronomical Research Observatory, Westfield.  Observer R. Holmes.
    Measurers T. Linder, R. Holmes, L. Horn.  0.76-m f/3.0 astrograph + CCD.
J95 Great Shefford.  Observer P. Birtwhistle.  0.41-m f/6.3 Schmidt-Cassegrain
    + CCD.
K74 Muensterschwarzach Observatory, Schwarzach.  Observer C. Gerhard.  0.30-m
    f/3.75 reflector + CMO.
V00 Kitt Peak-Bok.  Observer R. A. Mastaler.  Measurers M. J. Brucker, C. E.
    Woodward, D. Fay, J. B. Fazekas, D. C. Fuls, A. R. Gibbs, H. Groeller, J.
    K. Hogan, R. A. Kowalski, S. M. Larson, C. Lejoly, G. J. Leonard, R. A.
    Mastaler, R. S. McMillan, D. Rankin, R. L. Seaman, A. Serrano, F. C.
    Shelly, K. W. Wierzchos.  2.25-m reflector + 4x4K mosaic CCD.
V06 Catalina Sky Survey-Kuiper.  Observer G. J. Leonard.  Measurers T. Beuden,
    V. F. Carvajal, D. Fay, J. B. Fazekas, D. C. Fuls, A. R. Gibbs, A. D.
    Grauer, H. Groeller, J. K. Hogan, R. A. Kowalski, S. M. Larson, G. J.
    Leonard, D. Rankin, R. L. Seaman, F. C. Shelly, K. W. Wierzchos.  1.55-m
    reflector + 1K CCD.
Z80 Northolt Branch Observatory.  Observer G. Wells.  0.25-m f/8.0 Ritchey-
    Chretien + CCD.
Orbital elements:
2024 BD                                                  Earth MOID = 0.0171 AU
Epoch 2023 Sept. 13.0 TT = JDT 2460200.5                Veres                   
M 281.05280              (2000.0)            P               Q                  
n   0.44629016     Peri.  263.83000     -0.83742670     +0.36912782             
a   1.6958646      Node   297.19338     -0.10467964     -0.83214312             
e   0.6034276      Incl.   26.94609     -0.53643144     -0.41386287             
P   2.21           H   25.44          G   0.15           U   7                  
Residuals in seconds of arc
240116 V00  0.0   0.1-    240116 033  0.3+  0.4+    240117 V06  0.1-  0.1-
240116 V00  0.1-  0.3-    240116 B72  0.1+  0.1+    240117 C40  0.1-  0.8-
240116 V00  0.0   0.2-    240116 B72  0.3-  0.4-    240117 C40  0.7+  1.4-
240116 V00  0.2-  0.4-    240116 K74  0.4-  0.4-    240117 C40 (0.0   2.3-)
240116 V06  0.1-  0.1+    240116 K74  0.2+  0.7-    240117 C40  0.2+  0.8-
240116 V06  0.0   0.1+    240117 H21  0.2+  0.3-    240117 C40  0.1-  1.4-
240116 V06  0.0   0.1+    240117 H21  0.1+  0.1-    240117 C40  0.4-  0.4-
240116 V06  0.0   0.0     240117 H21  0.0   0.4-    240117 C40  0.1+  1.5-
240116 V06  0.6+  0.1+    240117 H21  0.2-  0.1-    240117 C40  0.6-  0.1-
240116 V06  0.3-  0.0     240117 H21  0.2+  0.1-    240117 C40  0.2-  0.4-
240116 V06  0.0   0.1+    240117 654  0.2+  0.0     240117 J95  0.1+  0.6+
240116 V06  0.0   0.5+    240117 654  0.2-  0.3+    240117 J95  0.2+  0.9+
240116 J95  0.1+  0.2+    240117 703  0.4-  0.2-    240117 Z80  0.6+  0.6+
240116 J95  0.0   0.3+    240117 703  0.1+  0.0     240117 Z80  0.3-  0.4+
240116 J95  0.1-  0.4+    240117 703  0.2-  0.3+    240117 958  0.2-  0.1+
240116 J95  0.1+  0.2-    240117 703  0.6+  0.1+    240117 958  0.1-  0.8+
240116 B72  0.1+  0.0     240117 V06  0.0   0.0     240117 958  0.1-  0.3+
240116 033  0.2+  0.4+    240117 V06  0.1-  0.1+
240116 033  0.5+  0.4+    240117 V06  0.1-  0.1-
Ephemeris:
2024 BD                  a,e,i = 1.70, 0.60, 27                  q = 0.6725
Date    TT    R. A. (2000) Decl.     Delta      r    Elong.  Phase     V
2023 12 19    09 15 47.8 +50 23 56   0.4278  1.3064   131.3    34.5    25.6
...
2024 01 03    09 25 20.0 +49 16 12   0.2195  1.1599   139.9    33.1    23.9
...
2024 01 11    09 21 53.4 +45 24 15   0.1134  1.0801   146.7    30.0    22.2
...
2024 01 17    09 00 20.8 +26 36 46   0.03796 1.0202   163.4    16.0    19.2
2024 01 18    08 49 10.2 +13 34 49   0.02727 1.0102   165.5    14.1    18.4
2024 01 19    08 29 21.9 -12 18 23   0.01966 1.0003   146.4    33.0    18.3
...
2024 01 25    22 27 45.1 -67 42 28   0.07305 0.9413    52.2   124.3    24.8
...
2024 02 02    21 51 59.5 -59 20 00   0.1761  0.8657    43.3   128.7    26.9
...
2024 02 17    21 39 25.4 -52 59 53   0.3779  0.7442    40.8   119.8    27.5
M. P. C. Staff               (C) Copyright 2024 MPC           M.P.E.C. 2024-B24
    
    
More information about the Iaude
mailing list